Location: Sihaung
(22.8641°N, 94.0549°E)
Time: 17:39:52
(UTC+00:00)

CZ-3 R/B - Pass Details

Date: 03 March 2021
Orbit: 386 x 10219 km, 28.3° (Epoch: 12 April)

Event Time Altitude Azimuth Distance (km) Brightness Sun altitude
Rises 19:57:10 0° 233° (SW) 15,093 7.3 -56.5°
Enters shadow 20:13:31 - 231° (SW) 13,273 6.9 -53.0°
Exits shadow 20:54:51 49° 209° (SSW) 5,268 4.8 -43.9°
Maximum altitude 21:02:41 62° 160° (SSE) 3,551 4.1 -42.1°
Drops below altitude 10° 21:13:27 10° 81° (E) 3,795 5.2 -39.7°
Sets 21:15:26 0° 77° (ENE) 4,314 5.8 -39.3°
